E20YUC-1 Weather Reports


time (UTC)temp
F
wind
direction
speed
knots
gust
knots
rain 1hr
in
rain 24hr
in
rain mn
in
humidity
%
barometer
mb
20260508085443 93 0 1.7 3.5 0.00 0.00 0.00 61 993.8
20260508084943 93 22 0.0 5.2 0.00 0.00 0.00 61 993.8
20260508084443 93 0 7.8 7.8 0.00 0.00 0.00 61 994.1
20260508083943 93 0 0.0 5.2 0.00 0.00 0.00 61 993.9
20260508083445 93 90 1.7 3.5 0.00 0.00 0.00 60 994.0
20260508082943 94 22 0.9 7.0 0.00 0.00 0.00 60 993.7
20260508082443 94 0 3.5 7.0 0.00 0.00 0.00 59 993.8
20260508081443 95 0 1.7 7.8 0.00 0.00 0.00 57 994.0
20260508080945 95 22 5.2 12.2 0.00 0.00 0.00 56 993.5
20260508080443 96 180 2.6 9.6 0.00 0.00 0.00 55 993.6
20260508075443 99 0 10.4 11.3 0.00 0.00 0.00 54 993.6
20260508074943 99 22 0.0 3.5 0.00 0.00 0.00 52 993.5
20260508074444 99 22 3.5 3.5 0.00 0.00 0.00 52 993.0
20260508073442 100 22 0.0 7.0 0.00 0.00 0.00 51 992.9
20260508072442 101 22 0.0 7.0 0.00 0.00 0.00 50 993.3
20260508071944 101 90 0.0 1.7 0.00 0.00 0.00 50 993.3
20260508070942 101 22 0.0 4.3 0.00 0.00 0.00 50 993.5
20260508065942 101 22 1.7 4.3 0.00 0.00 0.00 50 993.4
20260508065444 101 22 0.0 0.0 0.00 0.00 0.00 50 993.4
20260508064442 101 22 0.9 4.3 0.00 0.00 0.00 50 993.8
20260508063442 101 90 0.0 2.6 0.00 0.00 0.00 51 993.8
20260508062944 100 22 1.7 1.7 0.00 0.00 0.00 51 993.8
20260508062442 101 22 0.0 2.6 0.00 0.00 0.00 51 994.1
20260508061442 101 22 0.0 1.7 0.00 0.00 0.00 52 994.3
20260508060942 101 22 4.3 4.3 0.00 0.00 0.00 51 994.3
20260508060443 39 90 0.0 1.7 0.00 0.00 0.00 52 994.5
20260508055442 100 90 1.7 5.2 0.00 0.00 0.00 53 994.7
20260508054842 100 90 0.0 1.7 0.00 0.00 0.00 53 995.1
20260508054341 99 90 2.6 2.6 0.00 0.00 0.00 53 995.3
20260508053843 99 0 1.7 4.3 0.00 0.00 0.00 53 995.4
20260508052841 99 0 0.0 6.1 0.00 0.00 0.00 54 995.6
20260508052341 99 0 0.0 2.6 0.00 0.00 0.00 54 995.7
20260508051841 99 0 0.0 4.3 0.00 0.00 0.00 54 995.9
20260508051343 99 292 1.7 3.5 0.00 0.00 0.00 55 995.9
20260508050841 99 0 3.5 3.5 0.00 0.00 0.00 56 995.8
20260508050341 99 0 1.7 2.6 0.00 0.00 0.00 56 996.0
20260508045841 98 0 0.0 1.7 0.00 0.00 0.00 56 996.1
20260508045341 98 90 0.0 8.7 0.00 0.00 0.00 57 996.2
20260508044743 98 292 0.0 2.6 0.00 0.00 0.00 57 996.3
20260508044241 98 292 0.0 3.5 0.00 0.00 0.00 57 996.5
20260508043741 98 22 0.0 2.6 0.00 0.00 0.00 57 996.6
20260508042741 97 22 0.0 13.0 0.00 0.00 0.00 58 996.9
20260508042242 97 22 0.0 1.7 0.00 0.00 0.00 58 996.7
20260508041741 97 90 0.0 0.9 0.00 0.00 0.00 59 997.0
20260508040740 97 90 0.0 2.6 0.00 0.00 0.00 59 997.1
20260508035742 96 90 0.0 0.0 0.00 0.00 0.00 60 997.1
20260508035240 95 22 0.0 1.7 0.00 0.00 0.00 60 997.2
20260508034640 95 22 0.0 0.0 0.00 0.00 0.00 60 997.3
20260508033640 95 0 2.6 2.6 0.00 0.00 0.00 62 997.4
20260508033142 95 22 1.7 4.3 0.00 0.00 0.00 62 997.2
20260508032640 95 292 0.0 1.7 0.00 0.00 0.00 63 997.4
20260508032141 94 292 0.0 0.0 0.00 0.00 0.00 63 997.3
20260508031140 93 90 0.0 1.7 0.00 0.00 0.00 63 997.5
20260508030642 93 22 0.0 3.5 0.00 0.00 0.00 64 997.6
20260508030140 93 22 0.0 1.7 0.00 0.00 0.00 64 997.5
20260508025640 93 90 0.0 0.0 0.00 0.00 0.00 65 997.5
20260508025144 93 90 0.0 2.6 0.00 0.00 0.00 65 997.7
20260508024540 93 22 0.0 1.7 0.00 0.00 0.00 66 997.6
20260508024041 92 22 0.0 3.5 0.00 0.00 0.00 67 997.7
20260508023540 92 90 0.0 0.0 0.00 0.00 0.00 67 997.8
20260508022539 91 0 0.0 1.7 0.00 0.00 0.00 68 997.8
20260508022040 91 0 0.0 0.0 0.00 0.00 0.00 69 997.8
20260508021541 91 22 0.0 1.7 0.00 0.00 0.00 69 997.8
20260508021039 91 22 0.0 0.0 0.00 0.00 0.00 69 997.8
20260508020039 90 22 0.0 0.0 0.00 0.00 0.00 70 997.8
20260508015539 90 22 0.0 1.7 0.00 0.00 0.00 71 997.7
20260508014941 89 292 0.0 0.0 0.00 0.00 0.00 72 997.7
20260508014439 89 0 0.0 0.0 0.00 0.00 0.00 72 997.7
20260508013939 89 22 0.0 0.0 0.00 0.00 0.00 73 997.6
20260508013439 34 90 0.0 0.0 0.00 0.00 0.00 74 997.6
20260508012939 88 90 0.0 0.0 0.00 0.00 0.00 74 997.4
20260508012441 88 22 0.0 0.0 0.00 0.00 0.00 74 997.4
20260508011939 88 90 0.0 0.0 0.00 0.00 0.00 74 997.2
20260508011439 88 90 0.0 0.0 0.00 0.00 0.00 74 997.3
20260508010939 88 90 0.0 0.0 0.00 0.00 0.00 75 997.3
20260508010439 88 22 0.0 1.7 0.00 0.00 0.00 75 997.3
20260508005940 88 90 0.9 0.9 0.00 0.00 0.00 75 997.1
20260508005438 88 90 0.0 1.7 0.00 0.00 0.00 75 997.0
20260508004838 87 22 0.0 0.0 0.00 0.00 0.00 76 996.9
20260508004338 87 90 0.0 0.0 0.00 0.00 0.00 76 996.8
20260508003838 87 0 0.0 0.0 0.00 0.00 0.00 76 996.6
20260508003340 87 0 0.0 1.7 0.00 0.00 0.00 76 996.6
20260508002838 87 22 0.0 0.0 0.00 0.00 0.00 76 996.6
20260508002338 87 22 0.0 0.0 0.00 0.00 0.00 77 996.5
20260508001838 86 22 0.0 0.0 0.00 0.00 0.00 77 996.5
20260508001338 86 90 0.0 0.0 0.00 0.00 0.00 78 996.4
20260508000840 86 90 0.0 0.0 0.00 0.00 0.00 78 996.4
20260508000338 85 22 0.0 0.0 0.00 0.00 0.00 78 996.4
20260507235838 85 22 0.0 0.0 0.00 0.00 0.00 79 996.3
20260507235338 84 90 0.0 0.0 0.00 0.00 0.00 80 996.2
20260507234738 84 22 0.0 0.0 0.00 0.00 0.00 80 996.1
20260507234240 83 22 0.0 0.0 0.00 0.00 0.00 80 996.3
20260507233738 83 22 0.0 0.0 0.00 0.00 0.00 80 996.3
20260507233238 83 90 0.0 0.0 0.00 0.00 0.00 81 996.2
20260507232738 83 22 0.0 0.0 0.00 0.00 0.00 81 996.2
20260507232238 83 90 0.0 0.0 0.00 0.00 0.00 81 996.1
20260507231739 83 90 0.0 0.0 0.00 0.00 0.00 81 996.1
20260507231238 83 90 0.0 0.0 0.00 0.00 0.00 81 996.2
20260507230737 82 22 0.0 0.0 0.00 0.00 0.00 81 996.1
20260507230237 82 90 0.0 0.0 0.00 0.00 0.00 80 996.1
20260507225737 82 90 0.0 0.0 0.00 0.00 0.00 80 996.1
20260507225239 83 90 0.0 0.0 0.00 0.00 0.00 80 996.0
20260507224737 83 22 0.0 0.0 0.00 0.00 0.00 80 995.9
20260507224237 83 90 0.0 0.0 0.00 0.00 0.00 80 996.0
20260507223737 83 22 0.0 0.0 0.00 0.00 0.00 80 996.0
20260507223237 83 90 0.0 0.0 0.00 0.00 0.00 80 995.9
20260507222739 83 90 0.0 0.0 0.00 0.00 0.00 81 995.9
20260507222237 83 90 0.0 0.0 0.00 0.00 0.00 81 995.7
20260507221237 82 90 0.0 0.0 0.00 0.00 0.00 81 995.6
20260507220737 82 90 0.0 0.0 0.00 0.00 0.00 81 995.5
20260507220239 82 90 0.0 0.0 0.00 0.00 0.00 81 995.5
20260507215737 82 90 0.0 0.0 0.00 0.00 0.00 81 995.5
20260507215237 82 90 0.0 0.0 0.00 0.00 0.00 81 995.4
20260507214737 82 90 0.0 0.0 0.00 0.00 0.00 81 995.4
20260507214237 82 90 0.0 0.0 0.00 0.00 0.00 81 995.3
20260507213738 83 22 0.0 0.0 0.00 0.00 0.00 81 995.2
20260507213237 83 90 0.0 0.0 0.00 0.00 0.00 81 995.1
20260507212736 83 22 0.0 0.0 0.00 0.00 0.00 81 995.0
20260507212237 83 22 0.0 0.0 0.00 0.00 0.00 81 995.0
20260507211736 83 90 0.0 0.0 0.00 0.00 0.00 81 995.0
20260507211238 82 90 0.0 0.0 0.00 0.00 0.00 81 995.1
20260507210736 82 22 0.0 1.7 0.00 0.00 0.00 81 995.0
20260507210236 83 90 0.0 0.9 0.00 0.00 0.00 81 995.0
20260507205736 83 22 0.0 1.7 0.00 0.00 0.00 81 995.0
20260507205236 83 90 0.0 1.7 0.00 0.00 0.00 81 995.0
20260507204738 83 90 0.0 0.0 0.00 0.00 0.00 81 995.2
20260507204236 83 90 0.0 0.0 0.00 0.00 0.00 81 995.2
20260507203236 83 90 0.0 0.0 0.00 0.00 0.00 81 995.2
20260507202736 83 90 0.0 0.0 0.00 0.00 0.00 81 995.2
20260507202238 83 90 0.0 0.0 0.00 0.00 0.00 81 995.2
20260507201736 83 90 0.0 0.9 0.00 0.00 0.00 81 995.2
20260507200736 83 22 0.0 0.0 0.00 0.00 0.00 82 995.2
20260507200236 83 90 0.0 0.0 0.00 0.00 0.00 82 995.1
20260507195737 83 90 0.0 0.0 0.00 0.00 0.00 82 995.1
20260507195235 83 90 0.0 0.0 0.00 0.00 0.00 82 995.0
20260507194235 83 90 0.0 0.0 0.00 0.00 0.00 82 995.4
20260507193735 83 90 0.0 2.6 0.00 0.00 0.00 82 995.2
20260507193237 83 90 0.0 0.0 0.00 0.00 0.00 81 995.3
20260507192735 83 22 0.0 0.0 0.00 0.00 0.00 81 995.5
20260507192235 83 22 0.0 0.0 0.00 0.00 0.00 81 995.5
20260507191235 83 90 0.0 4.3 0.00 0.00 0.00 81 995.6
20260507190737 83 90 1.7 1.7 0.00 0.00 0.00 81 995.6
20260507190235 83 90 0.0 2.6 0.00 0.00 0.00 80 995.6
20260507185735 83 90 0.0 0.9 0.00 0.00 0.00 80 995.6
20260507184735 83 22 0.0 0.0 0.00 0.00 0.00 80 995.8
20260507184237 83 0 0.0 0.0 0.00 0.00 0.00 80 995.8
20260507183735 83 90 0.0 0.9 0.00 0.00 0.00 80 995.9
20260507183235 83 22 0.0 0.0 0.00 0.00 0.00 80 996.1
20260507182735 83 90 0.0 1.7 0.00 0.00 0.00 80 996.2
20260507182236 83 22 0.0 0.0 0.00 0.00 0.00 80 996.2
20260507181736 83 90 0.0 2.6 0.00 0.00 0.00 80 996.2
20260507180734 83 22 0.0 0.0 0.00 0.00 0.00 79 996.3
20260507175734 84 90 0.0 0.0 0.00 0.00 0.00 79 996.3
20260507175236 84 90 0.0 0.0 0.00 0.00 0.00 79 996.3
20260507174234 84 22 0.0 0.0 0.00 0.00 0.00 78 996.3
20260507173234 84 90 0.0 0.0 0.00 0.00 0.00 78 996.3
20260507172736 84 90 0.0 0.0 0.00 0.00 0.00 78 996.3
20260507171734 84 90 0.0 0.0 0.00 0.00 0.00 78 996.5
20260507171234 84 90 0.0 0.0 0.00 0.00 0.00 78 996.6
20260507170734 84 90 0.0 0.0 0.00 0.00 0.00 78 996.6
20260507170236 84 22 0.0 0.0 0.00 0.00 0.00 78 996.7
20260507165734 84 90 0.0 0.0 0.00 0.00 0.00 78 996.8
20260507165234 84 90 0.0 0.0 0.00 0.00 0.00 78 996.8
20260507164234 84 90 0.0 0.0 0.00 0.00 0.00 78 996.9
20260507163735 84 90 0.0 0.0 0.00 0.00 0.00 78 996.9
20260507162733 84 90 0.0 0.0 0.00 0.00 0.00 77 997.0
20260507162234 84 22 0.0 0.0 0.00 0.00 0.00 77 997.1
20260507161733 84 90 0.0 0.0 0.00 0.00 0.00 77 997.2
20260507161235 84 90 0.0 0.0 0.00 0.00 0.00 77 997.2
20260507160233 84 90 0.0 2.6 0.00 0.00 0.00 77 997.4
20260507155233 84 22 0.0 0.0 0.00 0.00 0.00 77 997.5
20260507154735 84 90 0.0 0.0 0.00 0.00 0.00 77 997.5
20260507154233 84 0 0.0 0.0 0.00 0.00 0.00 76 997.7
20260507153233 84 90 0.0 3.5 0.00 0.00 0.00 76 997.6
20260507152733 84 90 0.0 2.6 0.00 0.00 0.00 77 997.5
20260507152235 84 22 0.0 0.9 0.00 0.00 0.00 76 997.5
20260507151733 84 22 0.0 1.7 0.00 0.00 0.00 76 997.7
20260507151233 84 90 0.0 0.0 0.00 0.00 0.00 76 997.8
20260507150233 84 22 0.0 0.0 0.00 0.00 0.00 76 997.7
20260507145734 84 45 0.0 1.7 0.00 0.00 0.00 76 997.8
20260507145233 85 0 0.0 1.7 0.00 0.00 0.00 75 997.8
20260507144732 85 90 0.0 2.6 0.00 0.00 0.00 75 997.8
20260507143732 85 22 1.7 4.3 0.00 0.00 0.00 75 997.5
20260507143234 85 0 0.0 1.7 0.00 0.00 0.00 75 997.5
20260507142732 85 22 0.0 1.7 0.00 0.00 0.00 75 997.6
20260507142233 85 22 0.0 0.0 0.00 0.00 0.00 75 997.6
20260507141232 85 22 0.0 1.7 0.00 0.00 0.00 75 997.3
20260507140734 85 22 2.6 2.6 0.00 0.00 0.00 74 997.1
20260507140232 85 90 0.0 3.5 0.00 0.00 0.00 74 997.0
20260507135232 85 22 0.0 1.7 0.00 0.00 0.00 74 996.7
20260507134732 86 90 4.3 4.3 0.00 0.00 0.00 73 996.6
20260507134234 86 90 0.0 0.0 0.00 0.00 0.00 73 996.4
20260507133732 86 22 0.0 0.0 0.00 0.00 0.00 73 996.3
20260507132732 86 22 0.0 0.0 0.00 0.00 0.00 72 995.8
20260507132233 86 22 0.0 0.0 0.00 0.00 0.00 72 995.8
20260507131733 86 90 0.0 0.0 0.00 0.00 0.00 72 995.8
20260507131232 86 90 0.0 1.7 0.00 0.00 0.00 72 995.6
20260507130231 86 0 0.0 0.9 0.00 0.00 0.00 72 995.2
20260507125731 86 22 0.0 0.0 0.00 0.00 0.00 72 995.3
20260507125233 86 22 0.0 1.7 0.00 0.00 0.00 72 995.0
20260507124731 86 22 0.0 1.7 0.00 0.00 0.00 72 995.1
20260507123731 86 0 0.0 0.0 0.00 0.00 0.00 72 994.9
20260507123231 86 90 0.0 0.0 0.00 0.00 0.00 72 994.9
20260507122733 86 22 0.0 2.6 0.00 0.00 0.00 71 994.7
20260507122232 86 90 0.0 0.0 0.00 0.00 0.00 72 994.7
20260507121822 86 90 0.0 0.0 0.00 0.00 0.00 71 994.7
20260507121811 86 90 0.0 1.7 0.00 0.00 0.00 71 994.7
20260507120900 87 90 0.9 1.7 0.00 0.00 0.00 71 994.6
20260507120400 87 292 0.0 1.7 0.00 0.00 0.00 70 994.5
20260507115900 87 22 0.0 0.0 0.00 0.00 0.00 70 994.5
20260507115401 87 90 0.0 1.7 0.00 0.00 0.00 70 994.5
20260507114900 87 90 0.0 4.3 0.00 0.00 0.00 69 994.4
20260507114400 88 90 3.5 6.1 0.00 0.00 0.00 69 994.4
20260507113859 88 22 2.6 2.6 0.00 0.00 0.00 69 994.5
20260507113359 88 0 0.0 0.0 0.00 0.00 0.00 69 994.4
20260507112901 88 22 0.0 7.0 0.00 0.00 0.00 69 994.2
20260507112359 88 90 0.0 3.5 0.00 0.00 0.00 68 994.1
20260507111359 88 90 1.7 5.2 0.00 0.00 0.00 68 993.9
20260507110859 89 90 0.0 7.0 0.00 0.00 0.00 68 993.9
20260507110401 89 22 1.7 1.7 0.00 0.00 0.00 68 994.0
20260507105359 89 0 0.0 5.2 0.00 0.00 0.00 67 994.1
20260507104859 89 22 8.7 8.7 0.00 0.00 0.00 67 994.0
20260507104359 89 90 1.7 2.6 0.00 0.00 0.00 67 993.8
20260507103901 90 90 1.7 1.7 0.00 0.00 0.00 66 993.8
20260507103359 90 90 1.7 1.7 0.00 0.00 0.00 66 993.7
20260507102359 90 90 0.9 0.9 0.00 0.00 0.00 66 993.8
20260507101859 34 90 0.0 0.0 0.00 0.00 0.00 66 993.8
20260507101400 90 22 0.0 1.7 0.00 0.00 0.00 65 993.7
20260507100859 90 90 0.0 1.7 0.00 0.00 0.00 65 993.6
20260507095858 91 90 0.0 0.0 0.00 0.00 0.00 64 993.3
20260507095358 91 22 0.0 4.3 0.00 0.00 0.00 64 993.2
20260507094900 91 22 5.2 7.8 0.00 0.00 0.00 62 993.4
20260507093858 92 22 3.5 13.0 0.00 0.00 0.00 61 993.7
20260507092858 93 22 1.7 6.1 0.00 0.00 0.00 62 993.5
20260507092400 93 90 2.6 3.5 0.00 0.00 0.00 62 993.6
20260507091358 93 22 0.0 7.0 0.00 0.00 0.00 62 993.5
20260507090358 94 0 0.0 4.3 0.00 0.00 0.00 61 993.1
20260507085900 95 22 3.5 8.7 0.00 0.00 0.00 60 993.3